Location: Dehesa de la Cepeda
(40.6574°N, 4.3013°W)
Time: 10:31:11
(UTC+00:00)

Transit 2A Rocket - Pass Details

Date: 13 August 2021
Orbit: 586 x 917 km, 66.7° (Epoch: 24 September)

Event Time Altitude Azimuth Distance (km) Brightness Sun altitude
Rises 20:47:25 0° 325° (NW) 3,364 9.7 -15.9°
Reaches altitude 10° 20:49:52 10° 320° (NW) 2,471 8.9 -16.3°
Maximum altitude 20:55:25 51° 246° (WSW) 1,105 6.0 -17.1°
Enters shadow 21:00:11 15° 176° (S) 2,219 7.0 -17.8°
Drops below altitude 10° 21:01:15 10° 173° (S) 2,587 - -18.0°
Sets 21:03:51 0° 168° (SSE) 3,535 - -18.4°
